STARLINK-35441, 65869

Orbit data source: Space-Track

STARLINK-35441, 65869 is a payload satellite owned by SpaceX/Seattle (US) in LEO that was launched on Fri, 03 Oct 2025 UTC via an FALCON 9 launch vehicle from the Air Force Western Test Range (AFWTR). Payload-class satellites include a variety of spacecraft equipped with specific instruments for various scientific and technological missions. These include communications satellites like Starlink; space stations such as the ISS; scientific satellites like the Hubble; Earth observation satellites from companies like Planet Labs, Umbra, and HawkEye 360; GPS; miniature CubeSats for education and research; and military/defense satellites.

Loading next visibility...
Identifier
65869, 2025-223R
Orbit
LEO
Country
Flag of USUS
Related business
Manufacturer
SpaceX/Seattle
Mission
Operational spacecraft
Bus & Motor
STARLINK V2MO, Unknown motor
Mass
575 kg wet, ~530 kg dry
Launch date (UTC)
2025-10-03 (2 weeks ago)
Launch vehicle
FALCON 9
Launch site
Air Force Western Test Range (AFWTR)
Object type
Payload
Rocket body
Debris
Shape & HBR
Unknown
Radar Cross Section
RCS unknown

Expand to show TLE details & history
Last TLE update: 9 hours ago

TLE from 9 hours ago
0 STARLINK-35441
1 65869U 25223R   25291.08030238  .00259522  00000-0  18866-2 0  9997
2 65869  53.1527 240.6906 0004792 274.9167  85.1305 15.72044321  2311
Epoch: 2025-10-18T01:55Z
TLE epoch observation values (Epoch: 2025-10-18T01:55:38.125Z)
Latitude
-0°
Longitude
-175.03471°
Altitude
353.698 km
Speed
7.698 km/s
True Right ascension
16h 02m 45s
True Declination
0° 00' 00"
Sunlit
Object was in daylight at epoch
Visualization orbit readout
Latitude
Unknown
Longitude
Unknown
Altitude
Unknown
Speed
Unknown
Apparent Right ascension
Unknown
Apparent Declination
Unknown
Sunlit
N/A
Visualization observer readout
Local Sidereal Time
05:49:37
Azimuth
Unknown
Elevation
Unknown
Doppler factor
Unknown
Orbital elements
Apogee altitude
356.543 km
Perigee altitude
350.092 km
Semi-major axis
6,731.454 km
Eccentricity
0.00048
Inclination
53.1527°
RAAN
240.6906°
Arg. of periapsis
274.9167°
True anomaly
85.18522°
Mean anomaly
85.1305°
Eccentric anomaly
85.15786°
Mean motion
3.92988 °/min
Orbital period
91.61 mins
BSTAR
0.0018866
Loading maneuver chart data...
Computing Atmospheric mass density...
Loading historical data...
Loading historical data...
Loading historical data...
Loading historical data...
Loading historical data...
Loading historical data...
Loading historical data...

Documentation

Showing up to 5 results
|